[[{"header":{"parameterUnit":"m.s-1","parameterCategory":1,"la1":30.2991,"la2":30.254,"lo1":-89.0895,"lo2":-89.0444,"dy":0.0017,"dx":0.0017,"nx":28,"ny":28,"refTime":"2025-05-15T09:00:00:Z","depth":0,"parameterNumber":2,"parameterNumberName":"U-component_of_WINDS"},"data":[0,0,0,0,0,0,0,0,0,0,0,0,0,0,0,0,0,0,0,0,0,0,0,0,0,0,0,0,0,0,0,0,0,0,0,0,0,0,0,0,0,0,0,0,0,0,0,0,0,0,0,0,0,0,0,0,0,0,1.6615,1.6616,0,1.6669,1.667,1.667,1.6648,1.6646,1.6645,1.6644,1.6699,1.6702,1.6705,0,0,0,0,0,0,0,0,0,0,0,0,0,1.6491,1.6493,1.6615,1.6616,1.6616,1.6669,1.667,1.6671,1.6648,1.6646,1.6645,1.6643,1.6698,1.6702,1.6705,0,0,0,0,0,0,0,0,0,0,0,0,0,1.6545,1.6494,1.6615,1.6612,1.6612,1.6669,1.667,1.6671,1.6648,1.6646,1.6644,1.6643,1.6697,1.6701,1.6705,1.6769,0,0,1.6718,1.6719,0,0,0,0,0,0,0,0,1.6542,1.6549,1.6611,1.6612,1.6612,1.665,1.6646,1.6704,1.6649,1.6634,1.6644,1.6642,1.6684,1.6689,1.6704,1.6771,1.6774,1.6718,1.672,1.6722,1.6723,0,0,0,0,0,0,0,1.6538,1.6547,1.6636,1.6612,1.6613,1.6607,1.6612,1.6657,1.667,1.6636,1.6634,1.6641,1.6684,1.67,1.6705,1.6775,1.6718,1.6721,1.6724,1.6725,1.6895,1.6897,0,0,0,0,0,0,1.6534,1.6544,1.6635,1.6638,1.6572,1.6611,1.6617,1.664,1.6669,1.6672,1.6642,1.664,1.6694,1.67,1.6707,1.6781,1.6722,1.6726,1.6728,1.6893,1.6895,1.6898,0,0,0,0,0,0,1.6532,1.6543,1.6633,1.6591,1.6602,1.6615,1.6641,1.6642,1.6657,1.6674,1.6676,1.6656,1.6693,1.6701,1.6753,1.6783,1.6728,1.6731,1.689,1.6894,1.6897,1.6933,0,0,0,0,0,0,1.6528,1.6542,1.6567,1.6591,1.6604,1.6679,1.6643,1.6644,1.6664,1.6661,1.6688,1.669,1.6692,1.6747,1.6757,1.6788,1.6734,1.6888,1.6892,1.6896,1.6929,1.6936,1.6943,0,0,0,0,0,1.6524,1.6575,1.6568,1.6579,1.6635,1.668,1.6687,1.6688,1.6667,1.6691,1.6702,1.6689,1.6778,1.6753,1.6764,1.6796,1.6886,1.6891,1.6895,1.6925,1.6935,1.6943,0,0,0,0,0,0,1.6554,1.6578,1.6571,1.6632,1.6654,1.6676,1.6707,1.6699,1.6728,1.6723,1.6723,1.6729,1.6783,1.6795,1.6766,1.6858,1.6829,1.6836,1.6848,1.6857,1.6864,1.686,1.6738,0,0,0,0,0,1.6568,1.6603,1.6622,1.6674,1.6685,1.6694,1.6714,1.6713,1.6736,1.6745,1.676,1.6783,1.6815,1.6837,1.6869,1.6931,1.6935,1.6958,1.6965,1.6971,1.6977,1.7009,1.7018,1.6913,1.6913,1.6913,0,0,1.6596,1.6614,1.6636,1.668,1.6697,1.6732,1.6703,1.6742,1.6768,1.6751,1.6801,1.6812,1.6837,1.6894,1.692,1.6906,1.7007,1.6977,1.6982,1.6984,1.7014,1.7024,1.7033,1.6916,1.6916,1.6915,0,0,1.6666,1.6684,1.6727,1.6745,1.6771,1.6777,1.6787,1.6811,1.6818,1.6867,1.6855,1.6886,1.6943,1.6961,1.6978,1.7053,1.7042,1.7063,1.7101,1.7131,1.714,1.7147,1.7172,1.7181,1.7069,1.7069,1.7069,0,1.6698,1.6751,1.6751,1.6791,1.681,1.6796,1.684,1.6857,1.6892,1.6905,1.6889,1.6959,1.6976,1.7035,1.7053,1.7068,1.7079,1.706,1.7139,1.7146,1.7153,1.7177,1.7186,1.7071,1.7071,1.7071,1.7071,0,1.6788,1.6825,1.6858,1.6891,1.6914,1.6956,1.6961,1.6984,1.698,1.6987,1.7037,1.7056,1.709,1.7105,1.7102,1.7164,1.7154,1.7138,1.7109,1.7165,1.7187,1.7197,1.7075,1.7074,1.7073,1.7073,0,0,1.6878,1.6911,1.6922,1.6937,1.6964,1.6992,1.7033,1.7066,1.7085,1.7109,1.7142,1.719,1.7175,1.7194,1.7193,1.7221,1.7277,1.7202,1.7202,1.7213,1.7344,1.7354,1.7365,1.727,1.7271,1.7273,1.7341,0,1.6949,1.702,1.702,1.7085,1.7118,1.7105,1.714,1.716,1.7168,1.7197,1.7205,1.7238,1.7217,1.7228,1.7255,1.7264,1.7302,1.7259,1.7299,1.7301,1.7292,1.7377,1.7388,1.7451,1.735,1.7351,1.7352,0,1.7041,1.7067,1.7135,1.7156,1.717,1.7202,1.7231,1.7259,1.7281,1.7284,1.7305,1.7299,1.7339,1.7309,1.7364,1.7334,1.7351,1.7358,1.736,1.7363,1.7329,1.738,1.7472,1.7481,1.7367,1.7365,1.7364,0,1.7097,1.715,1.7197,1.721,1.7236,1.7258,1.727,1.729,1.731,1.7335,1.7347,1.7378,1.7394,1.7417,1.742,1.7398,1.7474,1.7444,1.7477,1.7477,1.7492,1.7491,1.7586,1.7505,1.7505,1.7505,1.7505,0,1.7175,1.7216,1.7223,1.7252,1.7297,1.7297,1.7343,1.7353,1.737,1.74,1.7391,1.7419,1.7422,1.745,1.7453,1.7496,1.7504,1.7507,1.7507,1.7507,1.7506,1.7517,1.7512,1.7508,1.7507,1.7507,1.7506,0,1.7245,1.7252,1.7302,1.7322,1.7328,1.7361,1.7378,1.7405,1.7411,1.7449,1.7458,1.7467,1.75,1.7505,1.7545,1.7546,1.7598,1.7594,1.759,1.7589,1.762,1.7617,1.7725,1.7738,1.765,1.765,1.7651,0,1.7294,1.7325,1.7349,1.7368,1.7381,1.7412,1.7432,1.7433,1.7453,1.748,1.7503,1.7535,1.7561,1.7614,1.7625,1.7654,1.765,1.7685,1.7654,1.7653,1.7648,1.7646,1.7648,1.7691,1.7692,1.7693,1.7693,0,1.7379,1.738,1.7408,1.7437,1.746,1.7483,1.7505,1.7521,1.7524,1.7548,1.7581,1.7601,1.764,1.7672,1.77,1.7712,1.7703,1.7703,1.7712,1.7712,1.7708,1.7709,1.7605,1.7701,1.77,1.7699,1.7699,1.7699,1.7438,1.7465,1.7485,1.7517,1.7533,1.7553,1.7579,1.7588,1.7616,1.7648,1.7647,1.7683,1.7703,1.7741,1.7754,1.7782,1.777,1.7783,1.7786,1.7789,1.7791,1.7704,1.7788,1.7787,1.7787,1.7787,1.7787,0,1.7521,1.7533,1.7562,1.7592,1.7616,1.7606,1.7629,1.765,1.7682,1.7701,1.7726,1.7764,1.7794,1.7807,1.7836,1.7856,1.7852,1.7863,1.7861,1.7864,1.7801,1.779,1.7866,1.7866,1.7866,1.7866,1.7865,1.7865,1.7567,1.7611,1.7614,1.7666,1.7678,1.7713,1.7727,1.7745,1.776,1.7802,1.7827,1.7835,1.7851,1.7881,1.7908,1.7911,1.7922,1.7934,1.7935,1.7876,1.7868,1.7861,1.785,1.7937,1.7937,1.7995,1.7995,1.7996]},{"header":{"parameterUnit":"m.s-1","parameterCategory":1,"la1":30.2991,"la2":30.254,"lo1":-89.0895,"lo2":-89.0444,"dy":0.0017,"dx":0.0017,"nx":28,"ny":28,"refTime":"2025-05-15T09:00:00:Z","depth":0,"parameterNumber":3,"parameterNumberName":"V-component_of_WINDS"},"data":[0,0,0,0,0,0,0,0,0,0,0,0,0,0,0,0,0,0,0,0,0,0,0,0,0,0,0,0,0,0,0,0,0,0,0,0,0,0,0,0,0,0,0,0,0,0,0,0,0,0,0,0,0,0,0,0,0,0,6.3784,6.3785,0,6.3851,6.3852,6.3853,6.3771,6.3768,6.3765,6.3762,6.3825,6.3829,6.3833,0,0,0,0,0,0,0,0,0,0,0,0,0,6.3578,6.3582,6.3784,6.3785,6.3786,6.3851,6.3852,6.3853,6.3771,6.3768,6.3764,6.376,6.3823,6.3828,6.3834,0,0,0,0,0,0,0,0,0,0,0,0,0,6.3658,6.3584,6.3784,6.3753,6.3751,6.3851,6.3852,6.3853,6.3772,6.3767,6.3763,6.3759,6.3821,6.3828,6.3835,6.3966,0,0,6.3855,6.3858,0,0,0,0,0,0,0,0,6.3654,6.3666,6.3757,6.3755,6.3753,6.3798,6.3802,6.3891,6.3773,6.3764,6.3762,6.3757,6.3819,6.3826,6.3848,6.3969,6.3972,6.3856,6.386,6.3863,6.3865,0,0,0,0,0,0,0,6.3648,6.3663,6.381,6.3758,6.3756,6.3733,6.374,6.3819,6.3816,6.3764,6.3759,6.3768,6.3817,6.3842,6.3849,6.3973,6.3855,6.3861,6.3866,6.3868,6.4204,6.4208,0,0,0,0,0,0,6.3647,6.3659,6.3808,6.3812,6.3692,6.3741,6.3748,6.3788,6.3815,6.3815,6.3772,6.3764,6.3832,6.3841,6.3851,6.4006,6.3863,6.3869,6.3873,6.4199,6.4205,6.421,0,0,0,0,0,0,6.3643,6.3662,6.3805,6.3734,6.3751,6.3749,6.3795,6.3792,6.3816,6.382,6.3819,6.3798,6.3829,6.3841,6.3938,6.4007,6.3872,6.3878,6.4193,6.4201,6.4207,6.4319,0,0,0,0,0,0,6.3638,6.3661,6.3713,6.3736,6.3755,6.3895,6.3799,6.3796,6.3829,6.3819,6.3845,6.3844,6.3827,6.3929,6.3945,6.4014,6.3883,6.4187,6.4196,6.4205,6.4309,6.4329,6.4346,0,0,0,0,0,6.3631,6.374,6.3716,6.3734,6.382,6.3899,6.3909,6.3889,6.3835,6.3886,6.3888,6.3843,6.3997,6.3939,6.3957,6.4029,6.4182,6.4194,6.4204,6.43,6.4325,6.4346,0,0,0,0,0,0,6.3723,6.3743,6.3716,6.3836,6.3867,6.3885,6.3948,6.3915,6.396,6.3949,6.3919,6.3925,6.4029,6.4038,6.3974,6.4157,6.408,6.4096,6.4147,6.4171,6.4189,6.4185,6.3889,0,0,0,0,0,6.3758,6.3822,6.3835,6.394,6.3957,6.395,6.3984,6.3965,6.3994,6.4006,6.4016,6.4044,6.4098,6.4135,6.4185,6.4309,6.4313,6.4367,6.4386,6.4401,6.4415,6.448,6.4504,6.4246,6.4246,6.4246,0,0,6.3829,6.3848,6.389,6.3959,6.398,6.4045,6.3962,6.4034,6.4082,6.4016,6.4109,6.4117,6.4146,6.4258,6.4307,6.4269,6.4486,6.4415,6.4427,6.4432,6.4493,6.4518,6.454,6.4254,6.4252,6.4251,0,0,6.3994,6.4015,6.4105,6.4128,6.4162,6.4157,6.4178,6.4201,6.4205,6.4297,6.425,6.4304,6.4399,6.4422,6.4446,6.4618,6.4578,6.4634,6.4732,6.4796,6.4816,6.4834,6.4894,6.4917,6.4648,6.4648,6.4648,0,6.4078,6.4177,6.4154,6.4231,6.4262,6.4207,6.4296,6.4319,6.4367,6.4388,6.4345,6.4463,6.4479,6.4594,6.4636,6.4657,6.4679,6.4632,6.4815,6.4833,6.4849,6.4907,6.493,6.4655,6.4654,6.4653,6.4653,0,6.4278,6.4347,6.4415,6.4465,6.4503,6.4586,6.4573,6.4614,6.4592,6.459,6.4685,6.4702,6.4754,6.478,6.4758,6.4892,6.4867,6.482,6.4743,6.4881,6.4934,6.4956,6.4664,6.4662,6.466,6.4658,0,0,6.4504,6.454,6.4565,6.4587,6.462,6.4671,6.475,6.4803,6.4838,6.4872,6.4937,6.5018,6.4974,6.5002,6.4981,6.5038,6.5172,6.4983,6.4984,6.5018,6.5319,6.5354,6.5381,6.5145,6.5149,6.5153,6.5316,0,6.4668,6.4808,6.4789,6.4922,6.4984,6.4932,6.5001,6.5027,6.5027,6.5078,6.5077,6.5136,6.5074,6.509,6.5143,6.5144,6.5232,6.5132,6.5203,6.5206,6.5198,6.5408,6.5446,6.56,6.5337,6.5341,6.5343,0,6.4879,6.4923,6.5063,6.5086,6.5111,6.5173,6.522,6.527,6.5297,6.5293,6.5324,6.5294,6.537,6.5291,6.5395,6.5328,6.5355,6.536,6.5365,6.5371,6.5284,6.542,6.5649,6.5672,6.5376,6.5373,6.5371,0,6.5029,6.5123,6.5219,6.5238,6.5267,6.5312,6.5325,6.5349,6.5382,6.5421,6.5442,6.549,6.5516,6.5552,6.5534,6.5479,6.5641,6.5561,6.5639,6.5639,6.5676,6.5674,6.5912,6.5693,6.5693,6.5693,6.5692,0,6.5215,6.5303,6.5287,6.5345,6.5441,6.5417,6.5511,6.5518,6.5539,6.5597,6.5554,6.5608,6.5581,6.5633,6.5619,6.5707,6.5719,6.5716,6.5712,6.5721,6.5721,6.5739,6.5728,6.5699,6.5697,6.5696,6.5695,0,6.5399,6.5392,6.5493,6.5512,6.5519,6.5588,6.5603,6.5657,6.5654,6.5727,6.5743,6.5737,6.5796,6.5782,6.5845,6.5835,6.5946,6.5928,6.5938,6.5933,6.6012,6.6005,6.627,6.6303,6.6063,6.6065,6.6067,0,6.5519,6.5585,6.5612,6.5648,6.5666,6.5725,6.5758,6.5736,6.5773,6.5809,6.5858,6.5913,6.5956,6.6052,6.6052,6.61,6.6082,6.6172,6.6089,6.6096,6.6083,6.608,6.6086,6.6188,6.6191,6.6193,6.6195,0,6.5731,6.5724,6.5776,6.5826,6.5868,6.5906,6.5939,6.5971,6.5951,6.5994,6.6054,6.6088,6.6153,6.6208,6.6252,6.6263,6.6226,6.6221,6.6242,6.6252,6.6255,6.6254,6.5983,6.6215,6.6213,6.6212,6.6211,6.621,6.5887,6.5943,6.5971,6.6029,6.6052,6.6084,6.6136,6.6139,6.619,6.6243,6.6226,6.6295,6.6318,6.6374,6.6391,6.6442,6.6408,6.6438,6.6446,6.6453,6.6463,6.6247,6.645,6.6449,6.6449,6.6448,6.6448,0,6.6097,6.6112,6.6166,6.6215,6.6261,6.6223,6.6258,6.6298,6.6359,6.6386,6.6429,6.6498,6.655,6.6555,6.6604,6.6644,6.6628,6.6658,6.6655,6.6658,6.6491,6.6469,6.667,6.667,6.667,6.667,6.667,6.667,6.6212,6.6305,6.6301,6.6404,6.6418,6.6487,6.651,6.6538,6.6559,6.6639,6.6683,6.6686,6.6703,6.6752,6.6798,6.6798,6.6818,6.6854,6.6847,6.6691,6.6669,6.6648,6.6627,6.6858,6.6859,6.7009,6.7011,6.7012]}]]